Greenville, ME

3:37 PM EST on December 12, 2017 (GMT -0500)
Greenville

Weather History for KGNR - January, 2014

Change the Weather History Date:

Wednesday, January 1, 2014

  Actual Average (KMLT) Record (KMLT)
Temperature  
Mean Temperature -2 °F -  
Max Temperature 7 °F 24 °F 45 °F (1945)
Min Temperature -13 °F 4 °F -32 °F (1972)
Degree Days  
Heating Degree Days 67    
Moisture  
Dew Point -9 °F    
Average Humidity 70    
Maximum Humidity 79    
Minimum Humidity 58    
Precipitation  
Precipitation 0.00 in - - ()
Sea Level Pressure  
Sea Level Pressure 30.21 in    
Wind  
Wind Speed 3 mph (NW)    
Max Wind Speed 15 mph    
Max Gust Speed 24 mph    
Averages and records for this station are not official NWS values.
T = Trace of Precipitation, MM = Missing Value Source: NWS Daily Summary

Daily Weather History Graph

Daily Weather History Graph

Search for Another Location

Airport or City:

Trip Planner

Search our weather history database for the weather conditions in past years. The results will help you decide how hot, cold, wet, or windy it might be!

Date:

Astronomy

Jan. 01, 2014 Rise Set
Actual Time 7:18 AM EST 4:05 PM EST
Civil Twilight 6:44 AM EST 4:39 PM EST
Nautical Twilight 6:06 AM EST 5:17 PM EST
Astronomical Twilight 5:30 AM EST 5:53 PM EST
Moon 7:02 AM EST (1/1) 4:50 PM EST (1/1)
Length of Visible Light 9h 55m
Length of Day
8h 47m
New Moon, 0% of the Moon is Illuminated
Jan 1
New Moon
Jan 7
First Quarter
Jan 15
Full
Jan 24
Last Quarter
Jan 30
New

Hourly Weather History & Observations

Time (EST) Temp. Windchill Dew Point Humidity Pressure Visibility Wind Dir Wind Speed Gust Speed Precip Events Conditions
12:56 AM -0.9 °F - -6.0 °F 79% 30.02 in - Calm Calm - N/A   Unknown
1:56 AM 1.0 °F - -4.0 °F 79% 30.04 in - Calm Calm - N/A   Unknown
2:56 AM -0.0 °F - -6.0 °F 76% 30.06 in - Calm Calm - N/A   Unknown
3:56 AM -0.9 °F -14.1 °F -7.1 °F 75% 30.08 in - NNW 6.9 mph - N/A   Unknown
4:56 AM -2.9 °F - -9.0 °F 75% 30.10 in - Calm Calm - N/A   Unknown
5:56 AM -2.9 °F - -8.0 °F 79% 30.12 in - Calm Calm - N/A   Unknown
6:56 AM -2.0 °F - -9.0 °F 72% 30.14 in - Calm Calm - N/A   Unknown
7:56 AM -0.0 °F - -7.1 °F 72% 30.17 in - Calm Calm - N/A   Unknown
8:56 AM 1.9 °F - -5.1 °F 72% 30.18 in - Calm Calm - N/A   Unknown
9:56 AM 5.0 °F - -2.9 °F 70% 30.18 in - Calm Calm - N/A   Unknown
10:56 AM 6.1 °F -0.9 °F -5.1 °F 60% 30.17 in - Variable 3.5 mph - N/A   Unknown
11:56 AM 5.0 °F -4.1 °F -7.1 °F 58% 30.17 in - Variable 4.6 mph - N/A   Unknown
12:56 PM 6.1 °F -6.8 °F -5.1 °F 60% 30.19 in - NW 8.1 mph 17.3 mph N/A   Unknown
1:56 PM 7.0 °F -4.5 °F -5.1 °F 58% 30.19 in - NW 6.9 mph - N/A   Unknown
2:56 PM 3.9 °F -9.4 °F -5.1 °F 66% 30.22 in - NW 8.1 mph - N/A   Unknown
3:56 PM 1.9 °F -7.6 °F -9.0 °F 60% 30.25 in - Variable 4.6 mph - N/A   Unknown
4:56 PM -0.9 °F -17.4 °F -9.0 °F 69% 30.27 in - NW 10.4 mph - N/A   Unknown
5:56 PM -2.0 °F -17.7 °F -9.9 °F 69% 30.29 in - NW 9.2 mph 17.3 mph N/A   Unknown
6:56 PM -4.0 °F -24.5 °F -11.0 °F 72% 30.31 in - NW 15.0 mph 24.2 mph N/A   Unknown
7:56 PM -6.0 °F -22.6 °F -13.0 °F 72% 30.32 in - NW 9.2 mph 23.0 mph N/A   Unknown
8:56 PM -8.0 °F -25.0 °F -15.0 °F 71% 30.34 in - NW 9.2 mph 17.3 mph N/A   Unknown
9:56 PM -9.0 °F -25.2 °F -16.1 °F 71% 30.36 in - NNW 8.1 mph - N/A   Unknown
10:56 PM -11.0 °F -28.8 °F -17.0 °F 75% 30.38 in - NW 9.2 mph - N/A   Unknown
11:56 PM -13.0 °F -31.3 °F -18.9 °F 75% 30.38 in - NW 9.2 mph - N/A   Unknown